[[{"header":{"parameterUnit":"m.s-1","parameterCategory":1,"la1":30.2991,"la2":30.254,"lo1":-89.0895,"lo2":-89.0444,"dy":0.0017,"dx":0.0017,"nx":28,"ny":28,"refTime":"2026-02-11T03:00:00:Z","depth":0,"parameterNumber":2,"parameterNumberName":"U-component_of_WINDS"},"data":[0,0,0,0,0,0,0,0,0,0,0,0,0,0,0,0,0,0,0,0,0,0,0,0,0,0,0,0,0,0,0,0,0,0,0,0,0,0,0,0,0,0,0,0,0,0,0,0,0,0,0,0,0,0,0,0,0,0,-0.6866,-0.6866,0,-0.686,-0.686,-0.686,-0.6815,-0.6813,-0.6812,-0.6811,-0.6809,-0.681,-0.6811,0,0,0,0,0,0,0,0,0,0,0,0,0,-0.6845,-0.6845,-0.6866,-0.6866,-0.6866,-0.686,-0.686,-0.686,-0.6815,-0.6813,-0.6812,-0.6811,-0.6809,-0.681,-0.6811,0,0,0,0,0,0,0,0,0,0,0,0,0,-0.6848,-0.6846,-0.6866,-0.6843,-0.684,-0.686,-0.686,-0.686,-0.6815,-0.6813,-0.6812,-0.681,-0.6809,-0.681,-0.6812,-0.6854,0,0,-0.6816,-0.6817,0,0,0,0,0,0,0,0,-0.6848,-0.6849,-0.6846,-0.6844,-0.6842,-0.6836,-0.6851,-0.6858,-0.6815,-0.6825,-0.6811,-0.6809,-0.682,-0.682,-0.6823,-0.6854,-0.6854,-0.6816,-0.6817,-0.6818,-0.6818,0,0,0,0,0,0,0,-0.6848,-0.6849,-0.6864,-0.6846,-0.6844,-0.6834,-0.6833,-0.6853,-0.6832,-0.6824,-0.6821,-0.682,-0.6818,-0.6822,-0.6823,-0.6854,-0.6816,-0.6817,-0.6818,-0.6819,-0.6924,-0.6926,0,0,0,0,0,0,-0.685,-0.6849,-0.6864,-0.6863,-0.6841,-0.6836,-0.6835,-0.684,-0.6832,-0.6829,-0.6822,-0.6818,-0.682,-0.6821,-0.6822,-0.6875,-0.6818,-0.6819,-0.682,-0.6922,-0.6925,-0.6927,0,0,0,0,0,0,-0.685,-0.6852,-0.6864,-0.6855,-0.6856,-0.6838,-0.6844,-0.6841,-0.6844,-0.683,-0.6827,-0.6828,-0.6819,-0.682,-0.6847,-0.6874,-0.682,-0.6821,-0.692,-0.6923,-0.6926,-0.6978,0,0,0,0,0,0,-0.6849,-0.6852,-0.6866,-0.6856,-0.6857,-0.6887,-0.6846,-0.6842,-0.6846,-0.6841,-0.6835,-0.6833,-0.6817,-0.6845,-0.6849,-0.6875,-0.6822,-0.6918,-0.6921,-0.6925,-0.6974,-0.6982,-0.6989,0,0,0,0,0,-0.6849,-0.6881,-0.6867,-0.6869,-0.6874,-0.6889,-0.6889,-0.687,-0.6848,-0.6864,-0.6856,-0.6833,-0.687,-0.6848,-0.6852,-0.6879,-0.6916,-0.692,-0.6925,-0.697,-0.698,-0.6989,0,0,0,0,0,0,-0.6896,-0.6879,-0.6864,-0.6893,-0.6893,-0.6881,-0.69,-0.6881,-0.6887,-0.6883,-0.686,-0.6859,-0.6891,-0.6887,-0.6863,-0.6922,-0.6889,-0.6895,-0.6923,-0.6933,-0.694,-0.6941,-0.6823,0,0,0,0,0,-0.691,-0.6921,-0.6907,-0.6935,-0.6935,-0.6918,-0.6923,-0.6909,-0.6908,-0.6907,-0.6901,-0.6902,-0.6915,-0.6923,-0.6933,-0.6973,-0.6973,-0.6994,-0.7001,-0.7008,-0.7013,-0.7038,-0.7048,-0.6941,-0.6941,-0.6941,0,0,-0.6939,-0.6931,-0.694,-0.6944,-0.6942,-0.6957,-0.6918,-0.6934,-0.6946,-0.691,-0.6936,-0.6932,-0.6932,-0.6966,-0.6981,-0.6964,-0.7043,-0.7013,-0.7019,-0.702,-0.7043,-0.7053,-0.7062,-0.6944,-0.6943,-0.6943,0,0,-0.6999,-0.6993,-0.7017,-0.7016,-0.7013,-0.7002,-0.7008,-0.6999,-0.6995,-0.702,-0.6995,-0.7009,-0.703,-0.7032,-0.7036,-0.7101,-0.7082,-0.7105,-0.7146,-0.717,-0.7179,-0.7186,-0.7213,-0.7222,-0.711,-0.711,-0.711,0,-0.7036,-0.7055,-0.7032,-0.7051,-0.7056,-0.7023,-0.7049,-0.705,-0.7051,-0.7056,-0.7037,-0.7064,-0.7062,-0.7098,-0.7114,-0.7117,-0.7126,-0.7106,-0.7179,-0.7186,-0.7193,-0.7218,-0.7228,-0.7113,-0.7113,-0.7112,-0.7112,0,-0.7102,-0.7116,-0.7136,-0.7138,-0.7144,-0.7167,-0.715,-0.7159,-0.7145,-0.7137,-0.7165,-0.7161,-0.7172,-0.7179,-0.7164,-0.7214,-0.7205,-0.7183,-0.715,-0.7207,-0.723,-0.7239,-0.7117,-0.7116,-0.7115,-0.7115,0,0,-0.7191,-0.7181,-0.7189,-0.7191,-0.7187,-0.7198,-0.7221,-0.723,-0.7241,-0.7243,-0.7264,-0.7284,-0.7264,-0.7269,-0.7255,-0.7276,-0.7332,-0.7252,-0.7252,-0.727,-0.7391,-0.7409,-0.742,-0.7319,-0.732,-0.7322,-0.7392,0,-0.7252,-0.7288,-0.7269,-0.7309,-0.7324,-0.7295,-0.7315,-0.7316,-0.731,-0.7323,-0.7317,-0.7332,-0.7304,-0.7307,-0.7326,-0.7321,-0.7356,-0.7315,-0.7341,-0.7342,-0.7344,-0.7432,-0.745,-0.7516,-0.74,-0.7402,-0.7403,0,-0.7326,-0.7332,-0.7373,-0.7369,-0.7374,-0.7392,-0.7402,-0.7414,-0.7416,-0.741,-0.7417,-0.7399,-0.7424,-0.7391,-0.7427,-0.74,-0.7409,-0.7409,-0.7411,-0.7414,-0.7377,-0.744,-0.7536,-0.7548,-0.7416,-0.7415,-0.7414,0,-0.7391,-0.7409,-0.7436,-0.7438,-0.7433,-0.7447,-0.7446,-0.7446,-0.7455,-0.7463,-0.7469,-0.7481,-0.7488,-0.7499,-0.7487,-0.7463,-0.7527,-0.7491,-0.7525,-0.7526,-0.7541,-0.7541,-0.7643,-0.7543,-0.7543,-0.7543,-0.7543,0,-0.7461,-0.7488,-0.7466,-0.7483,-0.7514,-0.7493,-0.7525,-0.7521,-0.7522,-0.754,-0.7516,-0.7534,-0.7516,-0.7533,-0.7524,-0.7558,-0.756,-0.7559,-0.7556,-0.7562,-0.7563,-0.7569,-0.7566,-0.7546,-0.7545,-0.7545,-0.7544,0,-0.7538,-0.7524,-0.7553,-0.7546,-0.7545,-0.7569,-0.7564,-0.7582,-0.7574,-0.7598,-0.7602,-0.7591,-0.7611,-0.7599,-0.7619,-0.7613,-0.7658,-0.7648,-0.7658,-0.7656,-0.7692,-0.769,-0.7804,-0.782,-0.7708,-0.7709,-0.771,0,-0.7585,-0.7605,-0.7601,-0.7611,-0.7611,-0.7627,-0.7636,-0.7617,-0.7628,-0.7634,-0.7651,-0.7669,-0.7682,-0.7715,-0.7711,-0.7727,-0.772,-0.7758,-0.7722,-0.7729,-0.7724,-0.7724,-0.7728,-0.7767,-0.7768,-0.7769,-0.777,0,-0.767,-0.7663,-0.7674,-0.7685,-0.7696,-0.7704,-0.771,-0.772,-0.7702,-0.7716,-0.7735,-0.7745,-0.7766,-0.7786,-0.78,-0.7802,-0.7785,-0.7781,-0.7791,-0.7798,-0.7804,-0.7804,-0.768,-0.7779,-0.7778,-0.7777,-0.7777,-0.7776,-0.7735,-0.7753,-0.7754,-0.7769,-0.7772,-0.7779,-0.7796,-0.7791,-0.7806,-0.7821,-0.781,-0.7835,-0.784,-0.7858,-0.7863,-0.7883,-0.7868,-0.7881,-0.7885,-0.7889,-0.7895,-0.7799,-0.7886,-0.7885,-0.7885,-0.7885,-0.7885,0,-0.7822,-0.7821,-0.7835,-0.7845,-0.7858,-0.7838,-0.7845,-0.7858,-0.7879,-0.7885,-0.7899,-0.7924,-0.7943,-0.7941,-0.7959,-0.7977,-0.797,-0.7983,-0.7982,-0.7984,-0.7906,-0.7897,-0.7988,-0.7988,-0.7988,-0.7988,-0.7988,-0.7988,-0.7868,-0.7899,-0.7892,-0.7925,-0.7925,-0.7947,-0.7953,-0.7961,-0.7966,-0.7994,-0.801,-0.8008,-0.8012,-0.8031,-0.8049,-0.8048,-0.8058,-0.8075,-0.8072,-0.7999,-0.7989,-0.7979,-0.7971,-0.8076,-0.8076,-0.8148,-0.8149,-0.8149]},{"header":{"parameterUnit":"m.s-1","parameterCategory":1,"la1":30.2991,"la2":30.254,"lo1":-89.0895,"lo2":-89.0444,"dy":0.0017,"dx":0.0017,"nx":28,"ny":28,"refTime":"2026-02-11T03:00:00:Z","depth":0,"parameterNumber":3,"parameterNumberName":"V-component_of_WINDS"},"data":[0,0,0,0,0,0,0,0,0,0,0,0,0,0,0,0,0,0,0,0,0,0,0,0,0,0,0,0,0,0,0,0,0,0,0,0,0,0,0,0,0,0,0,0,0,0,0,0,0,0,0,0,0,0,0,0,0,0,1.1792,1.1793,0,1.1857,1.1858,1.1858,1.1917,1.1918,1.1919,1.1919,1.1981,1.1982,1.1983,0,0,0,0,0,0,0,0,0,0,0,0,0,1.1714,1.1715,1.1792,1.1793,1.1793,1.1857,1.1858,1.1859,1.1917,1.1918,1.1919,1.192,1.1981,1.1982,1.1983,0,0,0,0,0,0,0,0,0,0,0,0,0,1.176,1.1715,1.1792,1.1831,1.1835,1.1857,1.1858,1.1859,1.1917,1.1918,1.1919,1.192,1.1981,1.1982,1.1983,1.1971,0,0,1.1988,1.1988,0,0,0,0,0,0,0,0,1.1757,1.1763,1.1824,1.1828,1.1833,1.188,1.1853,1.1896,1.1917,1.1886,1.1919,1.1921,1.1946,1.1951,1.196,1.1974,1.1976,1.1988,1.1989,1.1989,1.199,0,0,0,0,0,0,0,1.1754,1.176,1.1817,1.1825,1.183,1.1843,1.1851,1.1861,1.1909,1.1888,1.1893,1.19,1.1949,1.1959,1.1962,1.1977,1.1988,1.1989,1.199,1.1991,1.1982,1.1981,0,0,0,0,0,0,1.1746,1.1757,1.1815,1.1819,1.1797,1.1844,1.1852,1.1864,1.1909,1.1917,1.1899,1.1902,1.1956,1.1961,1.1965,1.1952,1.1989,1.1991,1.1992,1.1983,1.1982,1.1981,0,0,0,0,0,0,1.1744,1.175,1.1813,1.179,1.1799,1.1844,1.1856,1.1864,1.1875,1.1917,1.1925,1.1901,1.1957,1.1963,1.1969,1.1955,1.1991,1.1993,1.1984,1.1983,1.1981,1.1927,0,0,0,0,0,0,1.1741,1.1749,1.1746,1.1789,1.18,1.1817,1.1855,1.1865,1.1877,1.1883,1.1921,1.1928,1.1958,1.1966,1.197,1.1958,1.1994,1.1986,1.1984,1.1982,1.193,1.1923,1.1918,0,0,0,0,0,1.1738,1.1727,1.1745,1.1752,1.1797,1.1816,1.1822,1.1858,1.1876,1.1872,1.19,1.1927,1.1956,1.1967,1.1971,1.1959,1.1987,1.1984,1.1982,1.1933,1.1925,1.1918,0,0,0,0,0,0,1.168,1.1734,1.1754,1.1757,1.1782,1.1826,1.1823,1.1849,1.1867,1.1871,1.1914,1.1922,1.1923,1.1942,1.1952,1.1948,1.1975,1.1973,1.1936,1.1929,1.1923,1.1917,1.1995,0,0,0,0,0,1.1667,1.168,1.1726,1.1724,1.1736,1.1777,1.1787,1.1812,1.1839,1.1849,1.1877,1.19,1.1914,1.1923,1.1939,1.1933,1.1942,1.1927,1.1921,1.1916,1.1913,1.1911,1.1904,1.1972,1.1972,1.1972,0,0,1.1641,1.1673,1.1678,1.1713,1.1735,1.1746,1.1785,1.1795,1.1803,1.185,1.1858,1.1879,1.1908,1.1908,1.1909,1.1923,1.1897,1.1913,1.1908,1.1909,1.1907,1.1901,1.1895,1.1971,1.1971,1.1971,0,0,1.1599,1.1625,1.1626,1.1647,1.1681,1.1708,1.1708,1.1749,1.1765,1.1774,1.1809,1.1819,1.1843,1.1862,1.1874,1.1839,1.1864,1.1843,1.1811,1.1808,1.1802,1.1798,1.1784,1.1778,1.1841,1.1841,1.1841,0,1.1563,1.1582,1.1623,1.163,1.1644,1.1689,1.1689,1.1708,1.1744,1.1751,1.1767,1.1798,1.1821,1.1825,1.1817,1.1826,1.1826,1.1838,1.18,1.1796,1.1792,1.1779,1.1774,1.1838,1.1838,1.1838,1.1839,0,1.1534,1.1547,1.1543,1.1578,1.1592,1.1595,1.1635,1.1644,1.1668,1.1693,1.1701,1.173,1.1751,1.1755,1.1778,1.1762,1.177,1.1792,1.182,1.1782,1.177,1.1766,1.1834,1.1835,1.1835,1.1836,0,0,1.1456,1.1514,1.1512,1.1528,1.1568,1.1578,1.1583,1.1606,1.1612,1.1635,1.1639,1.1659,1.168,1.1694,1.172,1.1717,1.1686,1.174,1.1741,1.1728,1.1668,1.165,1.1644,1.1704,1.1703,1.1702,1.1665,0,1.142,1.1434,1.147,1.1472,1.1483,1.1526,1.153,1.1554,1.1578,1.1589,1.1615,1.1628,1.1655,1.1664,1.1664,1.169,1.1674,1.1693,1.1706,1.1706,1.1696,1.1638,1.1619,1.1582,1.1661,1.166,1.166,0,1.1379,1.1401,1.1404,1.1443,1.1449,1.1452,1.1476,1.1487,1.1515,1.1532,1.1548,1.1577,1.1583,1.161,1.1617,1.1629,1.1637,1.165,1.165,1.1651,1.1679,1.1636,1.1572,1.1566,1.1653,1.1654,1.1654,0,1.132,1.135,1.1356,1.1368,1.1415,1.1416,1.1435,1.1464,1.1475,1.1495,1.1502,1.1522,1.1532,1.1546,1.1579,1.1596,1.1582,1.1612,1.1595,1.1594,1.1589,1.1589,1.1524,1.1596,1.1597,1.1597,1.1597,0,1.1275,1.1275,1.133,1.1333,1.1333,1.1375,1.1374,1.1397,1.1422,1.1429,1.1467,1.1472,1.1517,1.1527,1.1553,1.1554,1.1559,1.1572,1.1578,1.1567,1.1565,1.1572,1.1574,1.1595,1.1596,1.1596,1.1596,0,1.1209,1.1246,1.1255,1.1298,1.1309,1.1307,1.1343,1.1347,1.1373,1.1381,1.1386,1.1426,1.144,1.1475,1.1497,1.1515,1.1508,1.1522,1.1499,1.1503,1.1484,1.1485,1.1419,1.1412,1.149,1.149,1.1489,0,1.1177,1.1178,1.1221,1.123,1.1247,1.126,1.1272,1.1313,1.1323,1.1354,1.1354,1.1371,1.1387,1.1406,1.1436,1.1453,1.1466,1.1442,1.1469,1.1458,1.1464,1.1463,1.1462,1.1436,1.1435,1.1434,1.1433,0,1.1115,1.1134,1.115,1.1173,1.1186,1.1206,1.1227,1.1231,1.1277,1.1286,1.1301,1.1314,1.1337,1.1352,1.1374,1.1392,1.1419,1.1425,1.1421,1.141,1.1396,1.1401,1.1482,1.1426,1.1426,1.1427,1.1427,1.1428,1.1065,1.1067,1.1098,1.1115,1.1135,1.1154,1.116,1.1187,1.1201,1.1224,1.1247,1.1259,1.1286,1.1318,1.1334,1.1343,1.1357,1.1353,1.1352,1.1349,1.1344,1.1396,1.1347,1.1348,1.1348,1.1348,1.1348,0,1.1004,1.1026,1.1041,1.1071,1.1083,1.111,1.1135,1.1143,1.1154,1.1177,1.1192,1.1209,1.1224,1.1256,1.1273,1.1274,1.1287,1.1277,1.1277,1.128,1.1331,1.1331,1.1267,1.1267,1.1267,1.1267,1.1267,1.1267,1.0974,1.0979,1.1001,1.1016,1.1038,1.1052,1.1063,1.108,1.1099,1.1117,1.113,1.1151,1.1177,1.1197,1.1212,1.1221,1.1225,1.121,1.1223,1.1269,1.1277,1.1284,1.1285,1.1211,1.1211,1.1171,1.1171,1.1171]}]]